Lahr, Germany

7:59 AM CET on November 17, 2019 (GMT +0100)
Lahr

Weather History for EDTL - September, 2019

Change the Weather History Date:

Tuesday, September 3, 2019

  Actual Average (WUND) Record (WUND)
Temperature  
Mean Temperature 62 °F -  
Max Temperature 76 °F - - (-1)
Min Temperature 48 °F - - (-1)
Degree Days  
Heating Degree Days 3    
Growing Degree Days 12 (Base 50)    
Moisture  
Dew Point 46 °F    
Average Humidity 52    
Maximum Humidity 94    
Minimum Humidity 21    
Precipitation  
Precipitation 0.00 in - - ()
Sea Level Pressure  
Sea Level Pressure 30.26 in    
Wind  
Wind Speed 3 mph ()    
Max Wind Speed 9 mph    
Max Gust Speed -    
Visibility 15.3 miles    
Events      
Averages and records for this station are not official NWS values.
T = Trace of Precipitation, MM = Missing Value Source: Averaged Metar Reports

Daily Weather History Graph

Daily Weather History Graph

Search for Another Location

Airport or City:

Astronomy

Sep. 03, 2019 Rise Set
Actual Time 6:48 AM CEST 8:07 PM CEST
Civil Twilight 6:15 AM CEST 8:39 PM CEST
Nautical Twilight 5:36 AM CEST 9:18 PM CEST
Astronomical Twilight 4:54 AM CEST 10:00 PM CEST
Moon 11:43 AM CEST (9/3) 10:31 PM CEST (9/3)
Length of Visible Light 14h 23m
Length of Day
13h 18m
Waxing Crescent, 22% of the Moon is Illuminated
Sep 3
Waxing Crescent
Sep 6
First Quarter
Sep 14
Full
Sep 22
Last Quarter
Sep 28
New

Hourly Weather History & Observations

Time (CEST) Temp. Dew Point Humidity Pressure Visibility Wind Dir Wind Speed Gust Speed Precip Events Conditions
12:00 AM 55 °F 46 °F 64% 30.27 in 22 mi South 4.5 mph - -  
4:00 AM 49 °F 47 °F 88% 30.28 in 17 mi ENE 2.2 mph - -  
6:00 AM 48 °F 46 °F 89% 30.28 in 10 mi NW 2.2 mph - -  
7:20 AM 48.2 °F 44.6 °F 87% 30.27 in - NNW 2.3 mph - N/A   Clear
7:50 AM 50.0 °F 48.2 °F 94% 30.27 in - Calm Calm - N/A   Clear
8:20 AM 55.4 °F 48.2 °F 77% 30.27 in - Calm Calm - N/A   Clear
8:50 AM 57.2 °F 48.2 °F 72% 30.27 in - Variable 1.2 mph - N/A   Clear
9:20 AM 57.2 °F 50.0 °F 77% 30.30 in - SSW 4.6 mph - N/A   Clear
9:50 AM 60.8 °F 50.0 °F 68% 30.30 in - SSW 4.6 mph - N/A   Clear
10:00 AM 61 °F 48 °F 53% 30.31 in 19 mi SW 4.5 mph - -  
10:20 AM 62.6 °F 51.8 °F 68% 30.30 in - SW 4.6 mph - N/A   Clear
10:50 AM 64.4 °F 51.8 °F 64% 30.30 in - SW 3.5 mph - N/A   Clear
11:20 AM 66.2 °F 50.0 °F 56% 30.30 in - Variable 3.5 mph - N/A   Clear
11:50 AM 68.0 °F 51.8 °F 56% 30.30 in - Variable 3.5 mph - N/A   Clear
12:00 PM 68 °F 49 °F 41% 30.28 in 25 mi NW 2.2 mph - -   Overcast
12:20 PM 69.8 °F 50.0 °F 49% 30.27 in - Variable 2.3 mph - N/A   Clear
12:50 PM 71.6 °F 48.2 °F 43% 30.27 in - West 3.5 mph - N/A   Clear
1:20 PM 73.4 °F 46.4 °F 38% 30.27 in - Variable 4.6 mph - N/A   Clear
1:50 PM 73.4 °F 44.6 °F 36% 30.27 in - Variable 2.3 mph - N/A   Clear
2:20 PM 75.2 °F 44.6 °F 34% 30.24 in - North 5.8 mph - N/A   Clear
2:50 PM 75.2 °F 41.0 °F 29% 30.24 in - Variable 2.3 mph - N/A   Clear
3:20 PM 75.2 °F 41.0 °F 29% 30.24 in - Variable 3.5 mph - N/A   Clear
3:50 PM 75.2 °F 41.0 °F 29% 30.24 in - NNW 9.2 mph - N/A   Clear
4:20 PM 75.2 °F 44.6 °F 34% 30.21 in - NW 4.6 mph - N/A   Clear
5:20 PM 75.2 °F 42.8 °F 31% 30.21 in - Variable 3.5 mph - N/A   Clear
5:50 PM 75.2 °F 44.6 °F 34% 30.21 in - Variable 2.3 mph - N/A   Clear
6:00 PM 76 °F 44 °F 21% 30.20 in 31 mi NW 2.2 mph - -   Overcast
6:20 PM 75.2 °F 42.8 °F 31% 30.21 in - Variable 2.3 mph - N/A   Clear
6:50 PM 75.2 °F 42.8 °F 31% 30.21 in - Variable 2.3 mph - N/A   Clear
7:20 PM 73.4 °F 44.6 °F 36% 30.18 in - NE 2.3 mph - N/A   Clear
7:50 PM 71.6 °F 46.4 °F 41% 30.18 in - North 2.3 mph - N/A   Clear